Location: Passau
(48.5830°N, 13.4830°E)
Time: 20:24:30
(UTC+02:00)

Vanguard 3 - Pass Details

Date: 24 May 2024
Orbit: 509 x 3231 km, 33.3° (Epoch: 15 June)

Event Time Altitude Azimuth Distance (km) Brightness Sun altitude
Rises 18:44:25 0° 213° (SSW) 3,735 10.8 18.6°
Reaches altitude 10° 18:47:15 10° 198° (SSW) 3,113 10.3 18.1°
Maximum altitude 18:53:19 24° 148° (SSE) 2,888 9.7 17.1°
Drops below altitude 10° 19:02:12 10° 103° (ESE) 4,748 10.5 15.7°
Sets 19:07:53 0° 92° (E) 6,252 11.1 14.8°
